FCDMC ALERT System Data Display

36807 Powerline FRS
Impoundment Stage A2

Impoundment Stage A2
Date       Time        feet      cfs
02/08/2023 08:55:00    0.22        0
02/08/2023 08:09:00    0.37        4
02/08/2023 06:00:00    0.22        0
02/08/2023 05:04:00    0.22        0
02/08/2023 00:00:00    0.22        0
02/07/2023 23:38:00    0.22        0
02/07/2023 22:42:00    0.42        4
02/07/2023 22:10:00    0.22        0
02/07/2023 20:19:00    0.37        4
02/07/2023 18:00:00    0.22        0
02/07/2023 12:00:00    0.22        0
02/07/2023 08:31:00    0.27        0
02/07/2023 07:56:00    0.42        4
02/07/2023 06:43:00    0.22        0
02/07/2023 06:00:00    0.47        5
02/07/2023 04:52:00    0.47        5
02/07/2023 03:23:00    0.22        0
02/07/2023 02:42:00    0.42        4
02/07/2023 02:33:00    0.22        0
02/07/2023 02:01:00    0.42        4
02/07/2023 01:02:00    0.22        0
02/07/2023 00:00:00    0.37        4
02/06/2023 21:16:00    0.37        4
02/06/2023 18:00:00    0.22        0
02/06/2023 12:00:00    0.27        0
02/06/2023 08:59:00    0.22        0
02/06/2023 06:00:00    0.37        4
02/06/2023 00:00:00    0.32        3
02/05/2023 23:45:00    0.37        4
02/05/2023 18:00:54    0.22        0
02/05/2023 08:27:00    0.27        0
02/05/2023 06:49:00    0.42        4
02/05/2023 06:30:00    0.22        0
02/05/2023 06:00:00    0.42        4
02/05/2023 00:00:00    0.37        4
02/04/2023 22:06:00    0.37        4
02/04/2023 18:00:00    0.22        0
02/04/2023 12:00:00    0.22        0
02/04/2023 07:39:00    0.47        5
02/04/2023 07:05:00    0.22        0
02/04/2023 06:00:00    0.42        4
02/04/2023 00:00:00    0.32        3
02/03/2023 18:00:00    0.22        0
02/03/2023 12:00:00    0.22        0
02/03/2023 08:55:00    0.27        0
02/03/2023 06:00:00    0.42        4
02/03/2023 04:45:00    0.47        5
02/03/2023 03:58:00    0.22        0
02/03/2023 00:00:00    0.42        4
02/02/2023 19:55:00    0.37        4
02/02/2023 18:00:00    0.22        0
02/02/2023 12:00:00    0.22        0
02/02/2023 06:00:00    0.22        0
02/02/2023 00:00:00    0.20        0
02/01/2023 20:37:00    0.20        0
02/01/2023 18:00:00    0.20        0
02/01/2023 12:00:00    0.20        0
02/01/2023 08:54:00    0.20        0
02/01/2023 08:08:00    0.20        0
02/01/2023 06:41:00    0.20        0
02/01/2023 06:00:00    0.20        0
02/01/2023 00:00:00    0.20        0
01/31/2023 20:00:00    0.20        0
01/31/2023 18:00:00    0.20        0
01/31/2023 12:00:00    0.20        0
01/31/2023 08:45:00    0.20        0
01/31/2023 06:00:00    0.20        0
01/31/2023 00:00:00    0.20        0
01/30/2023 19:57:00    0.20        0
01/30/2023 18:00:00    0.20        0
01/30/2023 12:00:00    0.20        0
01/30/2023 08:35:00    0.20        0
01/30/2023 06:00:00    0.20        0
01/30/2023 00:00:00    0.20        0
01/29/2023 21:30:00    0.20        0
01/29/2023 18:00:00    0.20        0
01/29/2023 12:00:00    0.20        0
01/29/2023 08:30:00    0.20        0
01/29/2023 07:35:00    0.20        0
01/29/2023 06:22:00    0.20        0
01/29/2023 06:00:00    0.20        0
01/29/2023 04:43:00    0.20        0
01/29/2023 02:58:00    0.20        0
01/29/2023 02:15:00    0.20        0
01/29/2023 00:00:00    0.20        0
01/28/2023 22:58:00    0.20        0
01/28/2023 19:28:00    0.20        0
01/28/2023 18:00:00    0.20        0
01/28/2023 12:00:00    0.20        0
01/28/2023 09:16:00    0.20        0
01/28/2023 08:10:00    0.20        0
01/28/2023 06:00:00    0.20        0
01/28/2023 05:54:00    0.20        0
01/28/2023 00:00:00    0.20        0
01/27/2023 22:34:00    0.20        0
01/27/2023 22:19:00    0.20        0
01/27/2023 21:22:00    0.20        0
01/27/2023 19:22:00    0.20        0
01/27/2023 18:00:00    0.20        0
01/27/2023 12:00:00    0.20        0